Regional Weather Roundup
Issued by NWS

Home | Current Version | Previous Version | Graphics & Text | Print | Product List | Glossary On
Versions: 1 2 3 4 5 6 7 8 9 10 11 12 13 14 15 16 17 18 19 20 21 22 23 24 25 26 27 28 29 30 31 32 33 34 35 36 37 38 39 40 41 42 43 44 45 46 47 48 49 50
000
ASUS45 KBOU 201007
RWRCO

WEATHER ROUNDUP FOR COLORADO
NATIONAL WEATHER SERVICE DENVER/BOULDER CO
400 AM MDT THU JUL 20 2017

NOTE: "FAIR" INDICATES FEW OR NO CLOUDS BELOW 12000 FEET WITH NO
SIGNIFICANT WEATHER AND/OR OBSTRUCTIONS TO VISIBILITY.

COZ001>005-013-030-031-201100-
...NORTHWEST COLORADO...

CITY           SKY/WX    TMP DP  RH WIND       PRES   REMARKS
CRAIG          FAIR      61  53  75 SE9       30.27F
HAYDEN         FAIR      59  50  72 E13       30.29F
MEEKER         FAIR      61  55  81 CALM      30.27F
RABBIT EARS PA PTSUNNY   50  45  81 S7        30.59F
STEAMBOAT SPGS FAIR      55  53  94 NW5       30.33F
WALDEN         FAIR      50  45  81 SE6       30.43S
$$

COZ006>008-011-201100-
...WEST CENTRAL VALLEYS...

CITY           SKY/WX    TMP DP  RH WIND       PRES   REMARKS
GRAND JUNCTION FAIR      68  61  78 E9        30.16F
MONTROSE       FAIR      65  57  75 SE12      30.27F
EAGLE          CLOUDY    60  57  89 CALM      30.36F
RIFLE          FAIR      66  59  78 NE7       30.25F
DELTA          FAIR      71  58  63 E7        30.22F
NUCLA          FAIR      64  50  59 E7        30.30S
$$

COZ017>023-064>068-201100-
...SOUTHWEST COLORADO...

CITY           SKY/WX    TMP DP  RH WIND       PRES   REMARKS
DURANGO        FAIR      66  48  52 E5        30.32S
CORTEZ         FAIR      63  57  81 NE7       30.28S
PAGOSA SPRINGS MOCLDY    57  52  84 NE7       30.43S
TELLURIDE      MOCLDY    55  47  74 SE10      30.53S
WOLF CREEK PAS MOCLDY    48  39  71 SW14      30.77S
$$

COZ009-010-012-014-032>034-037-058>063-201100-
...CENTRAL COLORADO...

CITY           SKY/WX    TMP DP  RH WIND       PRES   REMARKS
ASPEN          FAIR      55  51  86 S7        30.44F
BUENA VISTA    FAIR      56  48  75 W8        30.45R
COPPER MTN     FAIR      50  43  76 W6        30.74F
BERTHOUD PASS  FAIR      45  32  61 NW15      30.77S
COTTONWOOD PAS FAIR      59  43  55 W9        30.57R
GUNNISON       FAIR      55  50  83 NE10      30.43F
KREMMLING      FAIR      61  55  82 E5        30.42F
LEADVILLE      FAIR      47  43  86 NE7       30.58S
MONARCH PASS   FAIR      46  37  71 W22       30.83S
SALIDA         FAIR      58  48  69 W3        30.49R
SUNLIGHT       FAIR      46  45  93 SE12      30.66R
WILKERSON PASS FAIR      50  41  71 E5        30.70R
$$

COZ069>075-201100-
...SAN LUIS VALLEY/SANGRE DE CRISTO MOUNTAINS...

CITY           SKY/WX    TMP DP  RH WIND       PRES   REMARKS
ALAMOSA        FAIR      56  50  80 E7        30.39R
DEL NORTE      FAIR      62  46  55 W9        30.42S
LA VETA PASS   NOT AVBL
SAGUACHE         N/A    N/A N/A N/A MISG        N/A
$$

COZ035-036-038>040-201100-
...NORTHERN COLORADO FRONT RANGE...

CITY           SKY/WX    TMP DP  RH WIND       PRES   REMARKS
DENVER INTL AP MOCLDY    66  56  70 CALM      30.24R
DMNS CITY PARK   N/A     68  53  59 E9        30.25R
AURORA         NOT AVBL
FRONT RANGE AP FAIR      64  55  72 N7        30.25S
ERIE MUNI ARPT FAIR      65  52  61 CALM      30.23S
BOULDER MUN AP FAIR      68  50  52 CALM      30.24R
CENTENNIAL     FAIR      68  54  60 N6        30.28R
BROOMFIELD     FAIR      70  50  49 CALM      30.27S
FORT COLLINS   FAIR      68  55  63 NW6       30.22R
LONGMONT       FAIR      65  54  66 CALM      30.25R
$$

COZ041-046-047-076>085-087-088-201100-
...PIKES PEAK/PALMER DIVIDE AND SOUTHERN FOOTHILLS...

CITY           SKY/WX    TMP DP  RH WIND       PRES   REMARKS
COLO. SPRINGS  FAIR      71  52  50 NW15      30.28R
A. F. ACADEMY  FAIR      64  50  59 N12       30.30R
SCHRIEVER AFB  FAIR      68  50  53 N20G26    30.26R
CHEYENNE MTN   NOT AVBL
ELLICOTT       FAIR     N/A N/A N/A N17G24    30.23S
FALCON           N/A     65  50  56 N18G26    30.32R
FORT CARSON    FAIR      71  52  50 N15       30.22R
LIMON          FAIR      65  57  75 NW7       30.20R
MONUMENT HILL  FAIR      59  50  72 NW5       30.37R
CANON CITY     CLEAR     72  54  53 W14       30.19R
WALSENBURG     NOT AVBL
TRINIDAD       FAIR      72  47  40 W13       30.20S
$$

COZ042>045-048>051-090-091-201100-
...NORTHEAST COLORADO...

CITY           SKY/WX    TMP DP  RH WIND       PRES   REMARKS
GREELEY ARPT   FAIR      67  59  75 CALM      30.19R
AKRON          FAIR      67  59  75 N10       30.14R
BURLINGTON     FAIR      65  58  78 W8        30.07R
WRAY           NOT AVBL
YUMA           NOT AVBL
STERLING       FAIR      68  63  83 N6        30.11R
HOLYOKE        FAIR      73  63  68 N16G23    30.06R
FORT MORGAN    FAIR      68  57  67 NE5       30.17R
$$

COZ086-089-092>099-201100-
...SOUTHEAST COLORADO...

CITY           SKY/WX    TMP DP  RH WIND       PRES   REMARKS
PUEBLO         FAIR      76  51  41 N18       30.13R
LA JUNTA       FAIR      73  54  51 W13       30.08R
LAMAR          FAIR      72  55  55 SW10      30.02R
SPRINGFIELD      N/A     69  57  65 S15       30.11S
$$



USA.gov is the U.S. government's official web portal to all federal, state and local government web resources and services.